This demonstration page uses our WeatherBlox Daily Observations layout. Learn more.

Hourly Observations for February 25, 2020

Temp ( °F °C ) Dew Point ( °F °C ) Humidity (%) Winds ( mph kmh ) Pressure ( in mb ) Visibility ( mi km ) Precip ( " mm )
12:15 am 00:15 Cloudy 34 1.2 24 -4.7 65 65 NNE 6 9 29.98 1015 10 16.0934 0 0
12:35 am 00:35 Cloudy 34 1.3 24 -4.2 67 67 NNE 5 7 29.99 1016 10 16.0934 0 0
12:55 am 00:55 Cloudy 34 1.1 25 -3.8 70 70 NE 8 13 29.98 1015 10 16.0934 0 0
1:15 am 01:15 Cloudy 34 1.1 26 -3.6 71 71 NNE 8 13 29.98 1015 10 16.0934 0 0
1:35 am 01:35 Cloudy 34 0.9 26 -3.5 73 73 N 8 13 29.99 1015 10 16.0934 0 0
1:55 am 01:55 Cloudy 33 0.5 28 -2.5 81 81 NNW 5 7 30.01 1016 10 16.0934 0 0
2:15 am 02:15 Cloudy 33 0.3 29 -1.9 85 85 N 5 7 30.02 1017 10 16.0934 0 0
2:35 am 02:35 Cloudy 32 0.1 29 -1.7 88 88 N 5 7 30.01 1016 10 16.0934 0 0
2:55 am 02:55 Cloudy with Light Snow 32 0 29 -1.8 88 88 N 7 11 30.01 1016 5 8.0467 0 0
3:15 am 03:15 Cloudy 32 0 28 -2 87 87 NNE 7 11 30.01 1016 10 16.0934 0 0
3:35 am 03:35 Cloudy 32 0 28 -2.4 84 84 NNE 9 15 30.01 1016 10 16.0934 0 0
3:55 am 03:55 Cloudy 32 -0.2 27 -2.8 83 83 NE 9 15 30.02 1016 10 16.0934 0 0
4:15 am 04:15 Cloudy 32 -0.2 26 -3.3 80 80 NNE 10 17 30.02 1016 10 16.0934 0 0
4:35 am 04:35 Cloudy 31 -0.3 26 -3.5 79 79 NNE 13 20 30.03 1017 10 16.0934 0 0
4:55 am 04:55 Cloudy 31 -0.5 25 -3.9 78 78 NNE 14 22 30.04 1017 10 16.0934 0 0
5:15 am 05:15 Cloudy 30 -0.9 25 -4.1 79 79 NE 14 22 30.05 1018 10 16.0934 0 0
5:35 am 05:35 Cloudy 30 -1 24 -4.4 78 78 NNE 13 20 30.06 1018 10 16.0934 0 0
5:55 am 05:55 Cloudy 30 -1 24 -4.2 79 79 NNE 20 31 30.07 1018 10 16.0934 0 0
6:15 am 06:15 Cloudy 30 -1.2 24 -4.2 80 80 NNE 18 30 30.1 1019 10 16.0934 0 0
6:35 am 06:35 Cloudy 30 -1.3 25 -4.1 81 81 NE 17 28 30.11 1020 10 16.0934 0 0
6:55 am 06:55 Cloudy 29 -1.4 25 -4 83 83 NNE 21 33 30.11 1020 10 16.0934 0 0
7:15 am 07:15 Cloudy 30 -1.3 25 -4 82 82 NNE 18 30 30.12 1020 10 16.0934 0 0
7:35 am 07:35 Cloudy 30 -1.2 25 -4 82 82 NNE 22 35 30.13 1020 10 16.0934 0 0
7:55 am 07:55 Cloudy 30 -1.1 25 -4 81 81 NNE 21 33 30.15 1021 10 16.0934 0 0
8:15 am 08:15 Cloudy 30 -1 25 -4 80 80 NNE 21 33 30.16 1021 10 16.0934 0 0
8:35 am 08:35 Cloudy 30 -1 25 -4 80 80 NNE 24 39 30.17 1022 10 16.0934 0 0
8:55 am 08:55 Cloudy 31 -0.7 25 -4 79 79 NNE 22 35 30.19 1022 10 16.0934 0 0
9:15 am 09:15 Cloudy 31 -0.3 25 -3.9 77 77 NNE 24 39 30.2 1023 10 16.0934 0 0
9:35 am 09:35 Cloudy 32 -0.2 25 -3.8 77 77 NNE 28 44 30.21 1023 10 16.0934 0 0
9:55 am 09:55 Windy with Snow Likely 31 -0.6 26 -3.2 83 83 NNE 22 35 30.23 1024 5 8.0467 0 0
10:15 am 10:15 Windy with Snow Likely 30 -1 27 -2.7 88 88 NNE 23 37 30.24 1024 1.25 2.011675 0 0
10:35 am 10:35 Cloudy with Snow 30 -1.2 28 -2.5 91 91 NNE 18 30 30.26 1025 0.5 0.80467 0 0
10:55 am 10:55 Windy with Snow Likely 30 -1.2 28 -2.2 93 93 NNE 20 31 30.27 1025 0.5 0.80467 0 0
11:15 am 11:15 Windy with Snow Likely 30 -1 28 -2 93 93 NNE 22 35 30.28 1025 0.75 1.207005 0 0
11:35 am 11:35 Cloudy with Light Snow 30 -1 28 -2 93 93 N 18 30 30.29 1026 1 1.60934 0 0
11:55 am 11:55 Windy with Snow Likely 30 -1 28 -2 93 93 N 20 31 30.31 1026 1 1.60934 0.01 0.254
12:15 pm 12:15 Windy with Snow Likely 30 -1 28 -2.2 92 92 N 24 39 30.31 1026 1.5 2.41401 0 0
12:35 pm 12:35 Cloudy with Light Snow 30 -1 28 -2.3 91 91 N 18 30 30.32 1027 1.25 2.011675 0 0
12:55 pm 12:55 Windy with Snow Likely 30 -1 28 -2.5 90 90 N 22 35 30.32 1027 1 1.60934 0 0
1:15 pm 13:15 Windy with Snow Likely 30 -1 28 -2.5 90 90 N 21 33 30.33 1027 1.25 2.011675 0 0
1:35 pm 13:35 Cloudy with Light Snow 31 -0.8 28 -2.5 88 88 N 18 30 30.32 1027 1.75 2.816345 0 0
1:55 pm 13:55 Cloudy 32 0 25 -3.8 76 76 N 25 41 30.32 1027 10 16.0934 0 0
2:15 pm 14:15 Cloudy 33 0.3 25 -3.9 74 74 N 24 39 30.31 1027 10 16.0934 0 0
2:35 pm 14:35 Cloudy 33 0.3 24 -4.4 71 71 N 23 37 30.32 1027 10 16.0934 0 0
2:55 pm 14:55 Cloudy 33 0.4 24 -4.2 72 72 N 24 39 30.32 1027 10 16.0934 0 0
3:15 pm 15:15 Cloudy 33 0.6 24 -4.3 70 70 N 25 41 30.33 1027 10 16.0934 0 0
3:35 pm 15:35 Cloudy 33 0.7 24 -4.6 68 68 N 25 41 30.34 1027 10 16.0934 0 0
3:55 pm 15:55 Cloudy 33 0.4 25 -4.1 72 72 N 21 33 30.35 1028 10 16.0934 0 0
4:15 pm 16:15 Cloudy 32 0.1 24 -4.2 73 73 N 21 33 30.36 1028 10 16.0934 0 0
4:35 pm 16:35 Cloudy 32 0.1 24 -4.3 73 73 N 21 33 30.37 1029 10 16.0934 0 0
4:55 pm 16:55 Cloudy 32 0 24 -4.5 72 72 N 20 31 30.39 1029 10 16.0934 0 0
5:15 pm 17:15 Cloudy 32 0 24 -4.5 72 72 N 18 30 30.4 1029 10 16.0934 0 0
5:35 pm 17:35 Cloudy 32 -0.1 24 -4.6 72 72 N 21 33 30.41 1030 10 16.0934 0 0
5:55 pm 17:55 Cloudy 32 -0.2 24 -4.5 73 73 N 17 28 30.42 1030 10 16.0934 0 0
6:15 pm 18:15 Cloudy 31 -0.5 24 -4.7 74 74 N 20 31 30.43 1030 10 16.0934 0 0
6:35 pm 18:35 Cloudy 30 -1 23 -5 75 75 N 17 28 30.45 1031 10 16.0934 0 0
6:55 pm 18:55 Cloudy 30 -1.2 23 -5.2 75 75 N 18 30 30.47 1032 10 16.0934 0 0
7:15 pm 19:15 Cloudy 29 -1.5 22 -5.3 76 76 N 16 26 30.48 1032 10 16.0934 0 0
7:35 pm 19:35 Cloudy 29 -1.6 22 -5.5 75 75 N 21 33 30.48 1032 10 16.0934 0 0
7:55 pm 19:55 Cloudy 29 -1.7 22 -5.5 76 76 N 18 30 30.49 1033 10 16.0934 0 0
8:15 pm 20:15 Cloudy 29 -1.9 22 -5.6 76 76 N 16 26 30.49 1033 10 16.0934 0 0
8:35 pm 20:35 Cloudy 28 -2 22 -5.7 76 76 N 18 30 30.5 1033 10 16.0934 0 0
8:55 pm 20:55 Mostly Cloudy 28 -2.3 21 -6 76 76 N 17 28 30.51 1033 10 16.0934 0 0
9:15 pm 21:15 Partly Cloudy 28 -2.3 21 -6.1 75 75 N 20 31 30.52 1033 10 16.0934 0 0
9:35 pm 21:35 Mostly Cloudy 28 -2.4 22 -5.7 78 78 N 17 28 30.52 1034 10 16.0934 0 0
9:55 pm 21:55 Partly Cloudy 27 -2.6 20 -6.5 75 75 N 17 28 30.52 1034 10 16.0934 0 0
10:15 pm 22:15 Partly Cloudy 27 -2.8 20 -6.8 74 74 N 20 31 30.53 1034 10 16.0934 0 0
10:35 pm 22:35 Clear 26 -3.4 19 -7.5 74 74 N 20 31 30.55 1035 10 16.0934 0 0
10:55 pm 22:55 Partly Cloudy 26 -3.6 18 -7.6 74 74 N 17 28 30.56 1035 10 16.0934 0 0
11:15 pm 23:15 Cloudy 26 -3.5 19 -7.5 74 74 N 14 22 30.55 1035 10 16.0934 0 0
11:35 pm 23:35 Cloudy 26 -3.6 19 -7 78 78 N 13 20 30.55 1035 10 16.0934 0 0
11:55 pm 23:55 Cloudy 26 -3.6 19 -7 78 78 NNW 13 20 30.55 1035 10 16.0934 0 0

Powered by AerisWeather